Flag Weather past 2 weeks in Douala, Cameroon

Now
86 °F

Thunderstorms. Broken clouds.


Feels Like: 97 °F
Forecast: 75 / 86 °F
Wind: 12 mph from Southwest

Location: Douala Obs.

Current Time: Nov 24, 2014 at 4:33:34 PM

Latest Report: Nov 24, 2014 at 4:00 PM


Visibility: N/A

Pressure: 29.77 "Hg

Humidity: 75%

Dew point: 77 °F

Location of DoualaLocation

Historic Weather in Douala — Graph

°F

Douala temperature yesterday

Maximum temperature yesterday: 90 °F (at 2:00 PM)
Minimum temperature yesterday: 79 °F (at 1:00 AM)
Average temperature yesterday: 83 °F

Past Weeks' High & Low Weather Summary

 TemperatureHumidityPressure
High91 °F (Nov 21, 2:00 PM)100% (Nov 10, 7:00 PM)29.95 "Hg (Nov 10, 7:00 PM)
Low72 °F (Nov 18, 3:00 AM)52% (Nov 18, 2:00 PM)29.74 "Hg (Nov 9, 3:00 PM)
Average80 °F88%29.84 "Hg
* Reported Nov 9 3:00 PM — Nov 24 3:00 PM, Douala, Weather by CustomWeather, © 2014

Note: Actual official high and low records may vary slightly from our data, if they occured in-between our weather recording intervals... More about our weather records

Advertising

Douala weather history for previous 24 hours

 ConditionsComfort  
Time TempWeatherWind HumidityBarometerVisibility
3:00 PM
Nov 24
84 °FThunderstorms. Broken clouds.12 mph84%29.80 "HgN/A
2:00 PM86 °FThunderstorms. Partly sunny.9 mph75%29.80 "HgN/A
1:00 PM90 °FThunderstorms. Partly sunny.7 mph71%29.83 "HgN/A
12:00 PM91 °FPartly sunny.5 mph67%29.89 "HgN/A
11:00 AM88 °FPartly sunny.7 mph75%29.86 "HgN/A
10:00 AM84 °FPartly sunny.No wind84%29.89 "HgN/A
9:00 AM82 °FPartly sunny.No wind89%29.89 "Hg5 mi
8:00 AM79 °FPartly sunny.No wind100%29.86 "Hg4 mi
7:00 AM79 °FFog.No wind100%29.86 "Hg2 mi
6:00 AM79 °FFog.No wind100%29.83 "Hg3 mi
5:00 AM79 °FPassing clouds.No wind100%29.83 "Hg5 mi
4:00 AM79 °FPassing clouds.No wind100%29.83 "Hg6 mi
3:00 AM79 °FPassing clouds.No wind100%29.83 "HgN/A
2:00 AM79 °FPassing clouds.No wind94%29.86 "HgN/A
1:00 AM79 °FPartly cloudy.No wind94%29.86 "HgN/A
12:00 AM79 °FPartly cloudy.No wind94%29.86 "HgN/A
11:00 PM
Nov 23
79 °FPartly cloudy.No wind94%29.86 "HgN/A
10:00 PM79 °FPassing clouds.No wind100%29.86 "HgN/A
9:00 PM79 °FPassing clouds.No wind94%29.86 "HgN/A
8:00 PM82 °FPassing clouds.No wind84%29.80 "HgN/A
7:00 PM82 °FPassing clouds.No wind89%29.80 "HgN/A
6:00 PM84 °FScattered clouds.7 mph84%29.77 "HgN/A
5:00 PM86 °FScattered clouds.7 mph75%29.77 "HgN/A
4:00 PM88 °FScattered clouds.7 mph75%29.77 "HgN/A
Weather by CustomWeather, © 2014

See weather overviewHow to use our weather pages